Total_Precipitation_Accumulation
0.39 1.12 1.62 2.05 1.61 0.90 0.86 0.87 1.20 1.44 1.30 0.95 0.80 0.78 0.63 0.60 0.42 0.41 0.57 0.38 0.52 0.55 0.46 0.36 0.46 0.58 0.59 0.67 0.65 0.65 0.67 0.75 0.82 1.10 0.90 0.48 0.27 0.16 0.02 0.01 0.00 0.00 0.01
0.55 0.84 1.07 2.09 2.75 1.81 1.19 1.18 0.99 0.86 1.26 1.39 0.92 0.99 1.01 1.02 0.76 0.70 0.60 0.63 0.73 0.85 0.81 0.50 0.51 0.47 0.42 0.44 0.50 0.54 0.60 0.52 0.62 0.68 0.67 0.51 0.28 0.13 0.02 0.01 0.00 0.00 0.01
0.46 0.87 0.81 1.00 1.40 2.19 1.62 1.38 1.92 1.31 1.04 1.66 1.63 1.49 1.83 1.71 1.36 0.83 0.60 0.80 1.13 1.44 1.41 1.30 1.19 0.97 0.79 0.78 0.76 0.88 1.14 1.04 0.96 1.08 1.10 0.68 0.33 0.12 0.03 0.02 0.01 0.01 0.01
0.33 0.67 0.95 0.79 0.77 0.97 1.47 1.20 1.68 1.60 1.39 1.56 2.20 1.97 1.61 1.62 1.45 1.50 1.51 1.68 1.82 2.19 2.29 2.13 1.88 1.63 1.39 1.32 1.36 1.42 1.47 1.56 1.58 1.56 1.30 0.96 0.59 0.40 0.19 0.06 0.05 0.04 0.02
0.37 0.40 0.63 0.94 0.90 0.68 1.25 1.36 1.43 1.46 1.31 1.41 1.65 2.27 2.16 1.56 1.32 1.46 1.52 1.57 1.68 1.92 2.19 2.28 2.45 2.36 2.49 2.49 2.24 2.01 1.73 1.50 1.50 1.45 1.33 1.20 1.08 0.81 0.65 0.36 0.16 0.11 0.08
0.46 0.53 0.65 0.64 0.54 0.49 0.79 1.27 1.03 1.12 1.03 1.23 1.18 1.61 2.31 2.22 1.74 1.50 1.44 1.50 1.75 1.75 1.94 2.17 2.35 2.50 2.42 2.18 2.02 1.79 1.52 1.32 1.19 1.02 1.04 1.05 0.89 0.65 0.60 0.49 0.33 0.35 0.23
0.86 1.01 0.82 0.64 0.52 0.35 0.73 1.05 0.95 1.07 0.93 1.21 1.37 1.16 1.58 2.19 2.21 2.09 2.08 1.93 1.76 1.72 2.05 2.36 2.27 2.10 1.90 1.61 1.44 1.35 1.22 1.23 1.20 1.22 1.10 1.04 1.03 0.95 1.05 1.15 0.88 0.73 0.43
1.32 1.52 1.83 1.43 1.07 0.81 0.98 0.93 0.77 1.11 1.11 1.14 1.26 1.35 1.35 1.37 1.38 1.51 1.64 1.76 1.86 1.74 1.57 2.02 2.24 2.05 1.77 1.69 1.39 1.22 1.09 0.99 0.97 1.01 1.15 1.21 1.19 1.21 1.32 1.54 1.69 1.49 0.91
1.04 1.27 1.43 1.09 0.83 1.26 1.48 1.08 0.88 1.10 1.00 0.92 0.85 1.02 1.26 1.06 0.89 1.00 0.98 1.00 1.08 1.30 1.22 1.01 1.06 1.18 1.21 1.33 1.40 1.30 1.07 0.97 0.92 0.89 0.94 0.96 0.87 0.88 1.06 1.26 1.59 2.01 1.88
1.04 0.78 0.54 0.37 0.48 0.62 0.62 0.86 0.75 0.51 0.49 0.60 0.39 0.61 0.75 0.84 0.78 0.81 0.73 0.62 0.58 0.60 0.68 0.71 0.75 0.78 0.85 0.90 0.98 1.07 1.06 1.24 1.30 1.24 1.21 1.13 0.96 0.91 0.98 1.08 1.25 1.58 1.93
0.17 0.08 0.03 0.03 0.04 0.05 0.09 0.20 0.29 0.26 0.30 0.34 0.27 0.36 0.50 0.39 0.39 0.47 0.52 0.53 0.44 0.47 0.43 0.38 0.35 0.33 0.31 0.34 0.42 0.42 0.40 0.45 0.45 0.53 0.71 0.77 0.71 0.78 0.80 0.79 0.85 1.01 1.27
0.00 0.01 0.01 0.01 0.01 0.01 0.02 0.02 0.03 0.03 0.04 0.05 0.09 0.15 0.24 0.27 0.21 0.21 0.25 0.20 0.16 0.21 0.32 0.34 0.25 0.22 0.23 0.24 0.29 0.34 0.37 0.42 0.42 0.37 0.45 0.50 0.46 0.59 0.60 0.67 0.71 0.74 0.82
0.00 0.00 0.00 0.00 0.00 0.00 0.02 0.04 0.04 0.02 0.02 0.02 0.06 0.08 0.08 0.10 0.08 0.10 0.09 0.09 0.08 0.08 0.05 0.05 0.06 0.07 0.08 0.10 0.15 0.23 0.30 0.36 0.39 0.40 0.43 0.42 0.50 0.63 0.64 0.74 0.84 0.92 0.92
0.01 0.00 0.00 0.00 0.00 0.01 0.05 0.05 0.04 0.02 0.05 0.05 0.05 0.06 0.06 0.07 0.08 0.08 0.06 0.07 0.07 0.07 0.05 0.05 0.06 0.06 0.07 0.10 0.12 0.13 0.16 0.21 0.27 0.35 0.46 0.54 0.67 0.70 0.74 0.91 0.99 1.00 1.05
0.01 0.00 0.01 0.01 0.01 0.01 0.03 0.04 0.07 0.08 0.08 0.11 0.11 0.09 0.07 0.05 0.05 0.06 0.05 0.05 0.06 0.07 0.07 0.08 0.12 0.14 0.17 0.23 0.26 0.30 0.39 0.42 0.42 0.41 0.42 0.49 0.65 0.70 0.64 0.64 0.64 0.72 0.87
0.02 0.01 0.01 0.00 0.00 0.00 0.01 0.02 0.06 0.10 0.16 0.15 0.10 0.07 0.06 0.06 0.07 0.06 0.06 0.08 0.09 0.11 0.15 0.18 0.15 0.15 0.18 0.39 0.32 0.25 0.26 0.31 0.37 0.45 0.47 0.54 0.59 0.44 0.41 0.40 0.36 0.37 0.59
0.01 0.00 0.00 0.00 0.00 0.00 0.01 0.01 0.03 0.06 0.07 0.06 0.04 0.04 0.07 0.10 0.09 0.07 0.05 0.09 0.23 0.40 0.36 0.38 0.47 0.61 0.70 0.79 0.61 0.50 0.38 0.40 0.37 0.35 0.31 0.27 0.25 0.30 0.21 0.24 0.30 0.45 0.53
0.00 0.00 0.00 0.00 0.00 0.00 0.00 0.01 0.02 0.07 0.16 0.23 0.24 0.20 0.38 0.53 0.37 0.44 0.56 0.63 0.43 0.44 0.56 0.50 0.64 0.70 0.83 0.77 0.61 0.61 0.57 0.55 0.55 0.45 0.33 0.28 0.21 0.17 0.18 0.25 0.52 0.35 0.26
0.01 0.00 0.00 0.00 0.00 0.00 0.00 0.01 0.02 0.04 0.15 0.33 0.58 0.61 0.65 0.67 0.73 1.09 1.03 1.18 1.08 0.85 0.71 0.58 0.54 0.45 0.36 0.26 0.21 0.17 0.15 0.16 0.15 0.14 0.14 0.18 0.20 0.28 0.48 0.52 0.42 0.29 0.32
0.01 0.01 0.00 0.00 0.00 0.00 0.03 0.05 0.04 0.08 0.18 0.26 0.22 0.62 0.78 0.63 0.58 0.63 0.64 0.72 0.50 0.52 0.60 0.53 0.35 0.29 0.20 0.14 0.10 0.09 0.07 0.06 0.05 0.06 0.08 0.14 0.12 0.27 0.65 0.44 0.36 0.36 0.29
0.01 0.01 0.02 0.02 0.04 0.07 0.13 0.25 0.23 0.41 0.54 0.84 0.62 0.66 0.80 0.64 0.47 0.54 0.36 0.36 0.38 0.30 0.21 0.14 0.10 0.05 0.03 0.01 0.01 0.01 0.02 0.02 0.06 0.08 0.06 0.07 0.24 0.43 0.31 0.29 0.27 0.34 0.47
0.23 0.25 0.18 0.14 0.18 0.22 0.37 0.73 0.67 0.66 0.70 0.64 0.70 0.44 0.40 0.30 0.22 0.15 0.14 0.11 0.06 0.04 0.02 0.01 0.01 0.00 0.00 0.01 0.01 0.02 0.03 0.08 0.08 0.06 0.06 0.17 0.41 0.23 0.20 0.18 0.24 0.41 0.44
0.28 0.54 0.49 0.45 0.55 0.41 0.44 0.59 0.47 0.29 0.15 0.18 0.13 0.06 0.03 0.02 0.01 0.01 0.00 0.00 0.01 0.01 0.02 0.02 0.02 0.01 0.01 0.01 0.01 0.02 0.08 0.11 0.10 0.08 0.23 0.28 0.21 0.19 0.22 0.27 0.30 0.32 0.26
0.01 0.02 0.02 0.06 0.15 0.15 0.14 0.18 0.12 0.06 0.03 0.02 0.02 0.02 0.02 0.04 0.01 0.02 0.02 0.02 0.02 0.03 0.04 0.04 0.05 0.03 0.02 0.02 0.02 0.04 0.07 0.09 0.14 0.20 0.21 0.15 0.19 0.26 0.28 0.34 0.37 0.33 0.24
0.04 0.04 0.04 0.04 0.03 0.01 0.01 0.01 0.01 0.03 0.05 0.06 0.07 0.09 0.11 0.12 0.07 0.05 0.06 0.07 0.06 0.09 0.08 0.08 0.11 0.12 0.11 0.06 0.11 0.15 0.15 0.16 0.21 0.18 0.10 0.21 0.22 0.18 0.22 0.24 0.25 0.23 0.32
0.07 0.06 0.07 0.07 0.11 0.13 0.11 0.08 0.07 0.08 0.09 0.09 0.09 0.16 0.18 0.23 0.31 0.37 0.32 0.29 0.22 0.20 0.16 0.18 0.18 0.16 0.19 0.20 0.24 0.27 0.34 0.35 0.34 0.29 0.18 0.16 0.17 0.20 0.15 0.13 0.20 0.26 0.40